"America/Chicago Time","Lifetime Energy (kWh)","Power (W)","AC Volts RMS (V) ","AC Amps RMS (mA)","Grid Frequency (Hz)","Inverter Temperature (C)"
"03/12/12 08:49:12","24.4093","13.3","212.28","129","60.03","7"
"03/12/12 08:54:13","24.4097","12.4","212.18","73","60.03","7"
"03/12/12 08:59:12","24.4103","15.8","212.82","4","60.03","7"
"03/12/12 09:04:12","24.4112","12.3","213.14","21","60.03","7"
"03/12/12 09:09:13","24.412","8.7","213.75","183","60.03","8"
"03/12/12 09:14:12","24.4129","10.9","213.54","242","60.03","8"
"03/12/12 09:19:12","24.4138","7.4","212.26","0","60.0","8"
"03/12/12 09:24:11","24.4143","0.0","212.52","1","60.03","9"
"03/12/12 09:29:12","24.4147","13.4","212.52","53","60.0","9"
"03/12/12 09:34:13","24.4156","13.3","213.39","238","60.03","9"
"03/12/12 09:39:13","24.4169","15.7","212.88","123","60.03","9"
"03/12/12 09:44:13","24.4182","15.1","213.57","235","60.03","9"
"03/12/12 09:49:13","24.4194","14.1","212.61","21","60.03","9"
"03/12/12 09:54:13","24.421","16.2","212.94","17","60.03","9"
"03/12/12 09:59:11","24.4228","36.3","213.07","200","60.03","9"
"03/12/12 10:04:12","24.4254","6.2","213.22","70","60.0","9"
"03/12/12 10:09:11","24.4268","28.9","213.57","143","60.0","9"
"03/12/12 10:14:12","24.4283","27.6","212.4","151","60.03","9"
"03/12/12 10:19:12","24.4299","14.1","211.98","134","60.07","9"
"03/12/12 10:24:13","24.4318","26.7","213.42","119","60.0","9"
"03/12/12 10:29:12","24.4344","36.6","214.08","218","60.03","10"
"03/12/12 10:34:12","24.4373","36.0","213.5","170","60.0","10"
"03/12/12 10:39:12","24.4403","25.1","213.23","165","60.03","10"
"03/12/12 10:44:13","24.4425","21.6","213.7","274","60.03","10"
"03/12/12 10:49:13","24.4448","25.9","213.78","160","60.0","11"
"03/12/12 10:54:13","24.4471","36.8","212.86","138","60.03","11"
"03/12/12 10:59:13","24.4489","34.1","213.74","214","60.03","11"
"03/12/12 11:04:12","24.4502","14.0","213.39","284","60.03","11"
"03/12/12 11:09:12","24.4517","13.9","213.45","14","60.03","11"
"03/12/12 11:14:12","24.4532","11.3","213.97","243","60.03","11"
"03/12/12 11:19:12","24.4545","10.8","214.01","0","60.0","10"
"03/12/12 11:24:12","24.4556","22.5","213.55","234","60.03","10"
"03/12/12 11:29:13","24.4579","19.4","213.58","221","59.96","10"
"03/12/12 11:34:13","24.4598","30.6","213.16","282","60.0","10"
"03/12/12 11:39:13","24.4616","30.6","213.27","22","60.03","10"
"03/12/12 11:44:11","24.4641","43.6","213.88","121","60.0","10"
"03/12/12 11:49:12","24.4671","27.2","213.75","151","60.03","10"
"03/12/12 11:54:12","24.469","24.9","213.3","52","60.03","10"
"03/12/12 11:59:13","24.4707","32.9","213.97","252","60.03","10"
"03/12/12 12:04:12","24.4729","34.9","213.77","200","60.03","10"
"03/12/12 12:09:12","24.4759","52.6","213.5","242","60.0","10"
"03/12/12 12:14:12","24.4795","46.4","214.28","170","60.0","11"
"03/12/12 12:19:13","24.4837","44.3","214.46","358","60.03","11"
"03/12/12 12:24:12","24.4872","39.6","214.32","262","60.03","12"
"03/12/12 12:29:12","24.4905","41.1","213.28","282","60.03","12"
"03/12/12 12:34:12","24.4932","34.4","213.59","344","60.03","12"
"03/12/12 12:39:12","24.4958","28.8","213.56","186","60.03","12"
"03/12/12 12:44:13","24.4983","14.2","213.56","164","60.0","13"
"03/12/12 12:49:11","24.5002","33.8","213.17","228","60.03","12"
"03/12/12 12:54:13","24.5032","40.6","213.45","147","60.03","12"
"03/12/12 13:04:13","24.5083","34.7","213.5","126","60.03","12"
"03/12/12 13:09:13","24.5102","10.2","213.12","207","60.03","12"
"03/12/12 13:14:12","24.5118","18.0","212.94","47","60.0","12"
"03/12/12 13:19:13","24.5145","42.3","213.66","236","60.03","12"
"03/12/12 13:24:13","24.5178","55.8","214.0","148","60.07","12"
"03/12/12 13:29:12","24.5214","41.7","213.44","105","60.0","13"
"03/12/12 13:34:13","24.5253","44.8","213.24","178","60.07","13"
"03/12/12 13:39:13","24.5294","47.1","214.1","213","60.03","14"
"03/12/12 13:44:12","24.5326","30.3","213.67","84","60.0","15"
"03/12/12 13:49:13","24.5354","38.6","215.14","263","60.0","15"
"03/12/12 13:54:13","24.5382","30.4","214.35","78","60.03","15"
"03/12/12 13:59:13","24.5418","57.4","214.95","261","60.0","15"
"03/12/12 14:04:12","24.5449","36.8","214.62","247","60.07","15"
"03/12/12 14:09:12","24.5476","49.1","214.49","326","60.03","15"
"03/12/12 14:14:12","24.5532","118.7","215.56","560","60.0","15"
"03/12/12 14:19:13","24.5643","141.3","215.72","665","60.03","17"
"03/12/12 14:24:13","24.5719","83.4","214.74","412","60.0","17"
"03/12/12 14:29:13","24.5775","63.3","214.71","324","60.03","17"
"03/12/12 14:34:12","24.5817","52.1","213.78","216","60.03","17"
"03/12/12 14:39:13","24.585","36.3","213.31","233","60.03","17"
"03/12/12 14:44:12","24.5886","41.7","213.84","350","60.03","16"
"03/12/12 14:49:13","24.5928","41.0","213.59","431","60.03","16"
"03/12/12 14:54:13","24.5967","47.0","214.62","355","60.03","17"
"03/12/12 14:59:13","24.6026","83.9","215.44","410","60.07","17"
"03/12/12 15:04:12","24.6112","94.0","215.23","458","60.0","18"
"03/12/12 15:09:13","24.6182","112.5","216.32","535","60.03","18"
"03/12/12 15:14:12","24.6271","109.8","215.65","523","60.07","18"
"03/12/12 15:19:12","24.6358","116.2","215.92","548","60.0","19"
"03/12/12 15:24:12","24.6459","146.7","215.83","679","60.03","20"
"03/12/12 15:29:12","24.6573","174.1","216.61","799","60.03","21"
"03/12/12 15:34:12","24.6694","163.1","217.27","751","60.03","22"
"03/12/12 15:39:13","24.6808","134.8","216.68","630","60.03","22"
"03/12/12 15:44:13","24.6908","121.6","215.72","574","60.03","22"
"03/12/12 15:49:12","24.7005","126.7","215.79","595","60.03","22"
"03/12/12 15:54:12","24.7093","106.3","215.55","505","60.03","22"
"03/12/12 15:59:13","24.7155","25.2","214.11","72","60.03","21"
"03/12/12 16:04:13","24.7209","85.8","215.99","421","60.03","20"
"03/12/12 16:09:12","24.7245","27.2","213.76","269","60.03","20"
"03/12/12 16:14:12","24.7263","14.7","213.85","21","60.03","19"
"03/12/12 16:19:12","24.7274","15.3","213.53","3","60.03","18"
"03/12/12 16:24:12","24.7287","13.8","213.66","176","60.03","18"
"03/12/12 16:29:12","24.7302","22.7","213.98","131","60.0","18"
"03/12/12 16:34:13","24.7318","34.6","214.05","246","60.03","17"
"03/12/12 16:39:13","24.7347","40.0","214.98","403","60.03","17"
"03/12/12 16:44:13","24.7385","35.7","215.28","201","60.03","17"
"03/12/12 16:49:12","24.7405","26.6","213.91","47","60.0","17"
"03/12/12 16:54:13","24.742","22.6","214.57","130","60.07","17"
"03/12/12 16:59:12","24.7436","17.4","214.05","24","60.03","17"
"03/12/12 17:04:12","24.7462","54.7","214.97","207","60.07","17"
"03/12/12 17:09:13","24.7488","20.3","213.04","125","60.03","17"
"03/12/12 17:14:13","24.7495","0.0","213.09","0","60.03","17"
"03/12/12 17:19:13","24.75","0.0","212.83","0","60.0","17"
"03/12/12 17:44:15","24.7507","0.0","213.64","0","60.03","15"
"03/13/12 08:14:12","24.7514","15.7","213.13","52","60.0","6"
"03/13/12 08:19:13","24.753","15.1","213.75","20","60.07","6"
"03/13/12 08:24:13","24.755","37.3","213.98","144","60.03","7"
"03/13/12 08:29:13","24.7609","92.6","215.08","448","60.0","7"
"03/13/12 08:34:13","24.7676","93.4","215.65","451","60.0","8"
"03/13/12 08:39:12","24.7753","101.6","214.79","491","60.03","9"
"03/13/12 08:44:13","24.7828","83.2","215.24","411","60.03","9"
"03/13/12 08:49:12","24.7901","73.2","214.41","365","60.0","10"
"03/13/12 08:54:13","24.797","56.5","214.09","398","60.03","10"
"03/13/12 08:59:12","24.8024","116.4","216.23","550","60.03","10"
"03/13/12 09:04:14","24.808","61.7","215.17","123","60.0","11"
"03/13/12 09:09:13","24.8154","62.3","214.24","320","60.03","11"
"03/13/12 09:14:13","24.8266","144.9","216.39","675","60.03","11"
"03/13/12 09:19:13","24.8374","137.3","215.26","647","60.03","12"
"03/13/12 09:24:13","24.8483","144.5","215.92","674","60.0","12"
"03/13/12 09:34:12","24.871","149.6","216.52","696","60.0","13"
"03/13/12 09:39:14","24.8829","154.5","216.9","716","60.0","13"
"03/13/12 09:44:12","24.8951","158.2","216.84","728","60.03","13"
"03/13/12 09:49:14","24.9076","162.5","217.08","749","60.0","13"
"03/13/12 09:54:12","24.9204","166.8","217.17","767","60.03","14"
"03/13/12 09:59:13","24.9336","170.8","217.44","780","60.0","14"
"03/13/12 10:04:12","24.9471","174.2","216.35","800","60.03","14"
"03/13/12 10:09:14","24.9608","177.9","216.84","816","60.03","15"
"03/13/12 10:14:13","24.9748","182.1","217.53","827","60.0","15"
"03/13/12 10:19:13","24.9891","185.4","217.17","844","60.0","15"
"03/13/12 10:24:13","25.0037","187.8","217.42","855","60.0","15"
"03/13/12 10:29:14","25.0185","191.0","217.9","871","60.03","15"
"03/13/12 10:34:13","25.0335","194.0","217.59","886","60.03","16"
"03/13/12 10:39:14","25.0488","196.1","217.23","892","60.03","16"
"03/13/12 10:44:17","25.0642","196.0","217.36","891","60.0","17"
"03/13/12 10:49:13","25.0792","195.8","217.44","887","60.0","17"
"03/13/12 10:54:13","25.0945","196.2","217.99","887","60.03","17"
"03/13/12 10:59:14","25.1097","195.8","218.45","880","60.03","17"
"03/13/12 11:04:14","25.125","195.6","217.87","888","60.0","18"
"03/13/12 11:09:13","25.1402","195.4","217.69","885","60.03","18"
"03/13/12 11:14:13","25.1555","195.9","217.99","881","60.03","18"
"03/13/12 11:19:12","25.1707","195.5","218.11","891","60.03","18"
"03/13/12 11:24:13","25.1859","195.9","217.96","886","60.0","18"
"03/13/12 11:29:14","25.2012","195.3","217.24","890","60.0","18"
"03/13/12 11:34:12","25.2164","195.3","217.65","887","60.0","19"
"03/13/12 11:39:12","25.2317","194.9","217.73","887","60.03","19"
"03/13/12 11:44:14","25.247","195.7","217.73","887","60.0","19"
"03/13/12 11:49:14","25.2622","195.5","217.79","881","60.03","19"
"03/13/12 11:54:13","25.2774","195.5","217.62","885","60.0","19"
"03/13/12 11:59:13","25.2927","195.4","217.06","891","60.03","19"
"03/13/12 12:04:14","25.308","195.2","216.94","890","60.0","19"
"03/13/12 12:09:13","25.3232","195.5","217.16","885","60.0","19"
"03/13/12 12:14:14","25.3385","194.7","216.67","885","60.03","19"
"03/13/12 12:19:13","25.3536","194.9","217.08","889","60.03","19"
"03/13/12 12:24:12","25.3688","195.5","217.56","892","60.07","19"
"03/13/12 12:29:13","25.3841","195.3","217.04","885","60.03","19"
"03/13/12 12:34:13","25.3993","195.5","217.07","891","60.03","19"
"03/13/12 12:39:13","25.4146","195.2","217.04","895","60.03","19"
"03/13/12 12:44:13","25.4298","195.8","217.76","887","60.03","19"
"03/13/12 12:49:13","25.4451","195.7","217.92","887","60.03","19"
"03/13/12 12:54:14","25.4604","194.6","218.06","888","60.03","19"
"03/13/12 12:59:13","25.4756","194.5","217.34","880","60.03","19"
"03/13/12 13:04:12","25.4908","195.1","217.33","886","60.0","19"
"03/13/12 13:09:13","25.5062","195.8","217.46","888","60.03","19"
"03/13/12 13:14:13","25.5214","195.1","217.22","885","60.07","19"
"03/13/12 13:19:13","25.5366","195.3","217.11","887","60.0","19"
"03/13/12 13:24:12","25.5518","195.3","217.73","890","60.03","19"
"03/13/12 13:29:12","25.5671","195.5","217.24","887","60.03","19"
"03/13/12 13:34:14","25.5824","195.2","217.43","886","60.03","19"
"03/13/12 13:39:13","25.5975","196.8","218.03","888","60.03","19"
"03/13/12 13:44:13","25.6128","195.4","217.42","891","60.0","19"
"03/13/12 13:49:14","25.628","196.1","217.1","891","60.03","19"
"03/13/12 13:54:13","25.6433","195.6","217.77","885","60.03","19"
"03/13/12 13:59:13","25.6586","196.1","217.49","895","60.03","19"
"03/13/12 14:04:13","25.6739","195.9","217.61","887","60.03","19"
"03/13/12 14:09:13","25.6892","195.4","217.25","892","60.0","19"
"03/13/12 14:14:13","25.7045","195.4","217.57","885","60.0","19"
"03/13/12 14:19:14","25.7198","195.7","218.22","883","60.03","19"
"03/13/12 14:24:14","25.735","195.0","217.31","889","60.03","19"
"03/13/12 14:29:14","25.7501","193.2","217.9","876","60.0","19"
"03/13/12 14:34:14","25.7651","191.0","217.18","867","60.0","19"
"03/13/12 14:39:13","25.7799","188.4","217.02","857","60.0","19"
"03/13/12 14:44:13","25.7944","186.3","217.47","847","60.0","19"
"03/13/12 14:49:14","25.8089","182.6","217.62","830","60.0","19"
"03/13/12 14:54:13","25.8229","179.7","217.4","816","60.03","19"
"03/13/12 14:59:14","25.8368","176.9","218.19","800","60.07","19"
"03/13/12 15:04:13","25.8504","173.3","216.91","794","60.03","19"
"03/13/12 15:09:13","25.8637","170.7","216.91","778","60.03","18"
"03/13/12 15:14:12","25.8769","167.2","216.15","769","60.03","18"
"03/13/12 15:19:13","25.8898","163.7","216.66","751","60.0","18"
"03/13/12 15:24:13","25.9024","159.4","216.66","737","60.0","18"
"03/13/12 15:29:13","25.9147","156.2","216.41","723","60.03","18"
"03/13/12 15:34:13","25.9268","152.9","216.19","701","60.03","18"
"03/13/12 15:39:14","25.9384","147.8","216.41","682","60.03","18"
"03/13/12 15:44:14","25.9498","144.3","215.57","674","60.03","17"
"03/13/12 16:02:53","25.9892","126.8","215.11","599","60.03","17"
"03/13/12 16:07:53","25.9989","122.2","215.84","579","60.03","17"
"03/13/12 16:12:52","26.0082","117.2","215.29","557","60.0","17"
"03/13/12 16:17:52","26.0172","112.8","215.66","539","60.0","17"
"03/13/12 16:22:53","26.0258","107.4","215.3","516","60.03","17"
"03/13/12 16:27:53","26.034","102.7","214.75","497","60.03","17"
"03/13/12 16:32:53","26.0418","98.0","214.39","477","60.03","17"
"03/13/12 16:37:53","26.0492","92.9","215.02","448","60.03","17"
"03/13/12 16:42:53","26.0563","87.7","214.25","433","60.03","16"
"03/13/12 16:47:52","26.0628","82.4","213.55","409","60.03","16"
"03/13/12 16:57:54","26.0747","69.0","214.39","350","60.03","16"
"03/13/12 17:02:53","26.0799","64.3","213.51","330","60.03","16"
"03/13/12 17:07:52","26.0844","56.8","213.88","351","60.07","16"
"03/13/12 17:12:53","26.0881","40.3","212.47","105","60.03","16"
"03/13/12 17:17:52","26.0916","38.9","213.27","264","60.03","15"
"03/13/12 17:22:52","26.0953","51.0","213.88","403","60.0","15"
"03/13/12 17:27:54","26.0986","36.9","214.1","210","60.03","15"
"03/13/12 17:32:53","26.1016","30.7","213.62","150","60.0","15"
"03/13/12 17:37:53","26.1042","26.4","213.99","237","60.03","15"
"03/13/12 17:42:53","26.1064","34.5","212.86","166","60.0","14"
"03/13/12 17:47:53","26.1083","18.6","213.08","224","60.03","14"
"03/13/12 17:52:52","26.1099","23.7","213.84","183","60.0","14"
"03/13/12 17:57:54","26.1111","11.0","213.53","39","60.07","13"
"03/13/12 18:02:53","26.1121","10.8","213.45","6","60.03","13"
"03/13/12 18:07:52","26.1129","14.7","213.51","4","60.03","13"
"03/13/12 18:12:54","26.1134","0.0","212.49","0","60.03","13"
"03/14/12 12:26:15","26.1134","195.2","216.33","890","60.0","25"
"03/14/12 12:31:14","26.1281","184.6","215.86","844","60.0","25"
"03/14/12 12:36:14","26.1433","195.1","216.43","890","60.03","26"
"03/14/12 12:41:15","26.1579","193.0","217.42","878","60.03","26"
"03/14/12 12:46:14","26.1731","193.7","217.2","886","60.03","27"
"03/14/12 12:51:14","26.188","117.3","216.77","553","60.0","27"
"03/14/12 12:56:15","26.1952","101.3","215.54","487","60.0","25"
"03/14/12 13:01:15","26.2083","164.2","216.37","751","60.03","26"
"03/14/12 13:06:13","26.2233","194.8","217.2","888","60.0","27"
"03/14/12 13:11:14","26.2384","194.9","217.28","884","60.03","28"
"03/14/12 13:16:15","26.2527","175.2","217.59","797","60.0","28"
"03/14/12 13:21:15","26.2665","181.2","217.21","824","60.03","29"
"03/14/12 13:26:15","26.2812","191.3","216.93","871","60.07","29"
"03/14/12 13:31:15","26.2945","188.0","217.22","854","60.03","29"
"03/14/12 13:36:13","26.305","164.9","216.47","757","60.0","29"
"03/14/12 13:41:14","26.3167","149.4","216.33","693","60.03","29"
"03/14/12 13:46:15","26.3309","192.0","217.31","879","60.03","29"
"03/14/12 13:51:15","26.3453","170.1","217.47","779","60.03","30"
"03/14/12 13:56:14","26.359","183.1","217.56","830","60.03","30"
"03/14/12 14:01:14","26.3731","179.2","217.62","815","60.0","31"
"03/14/12 14:06:14","26.3869","175.5","216.78","801","60.03","31"
"03/14/12 14:11:15","26.4006","173.2","217.32","793","60.03","31"
"03/14/12 14:16:15","26.414","170.7","216.62","780","60.0","32"
"03/14/12 14:21:14","26.4271","169.8","216.89","779","60.0","32"
"03/14/12 14:26:15","26.4404","168.5","217.32","776","60.07","32"
"03/14/12 14:31:14","26.4534","166.7","217.98","762","60.03","32"
"03/14/12 14:36:14","26.4664","167.4","217.87","765","60.0","32"
"03/14/12 14:41:15","26.4794","164.2","217.16","755","60.03","32"
"03/14/12 14:46:14","26.4921","162.5","217.3","746","60.0","32"
"03/14/12 14:51:14","26.5047","160.6","217.26","737","60.03","32"
"03/14/12 14:56:15","26.5171","158.1","217.74","727","60.03","32"
"03/14/12 15:01:13","26.5293","154.8","217.42","714","60.03","32"
"03/14/12 15:06:15","26.5412","150.0","217.17","690","60.0","32"
"03/14/12 15:11:15","26.5528","146.2","217.58","676","60.03","32"
"03/14/12 15:16:14","26.564","142.5","216.84","665","60.0","32"
"03/14/12 15:21:14","26.575","140.8","215.98","657","60.03","32"
"03/14/12 15:26:15","26.5859","136.1","215.23","638","60.03","31"
"03/14/12 15:31:15","26.5965","134.7","215.95","632","60.03","31"
"03/14/12 15:36:15","26.6065","120.2","215.76","569","60.0","31"
"03/14/12 15:41:13","26.6157","114.6","215.53","544","60.0","31"
"03/14/12 15:46:13","26.6243","108.9","215.47","520","60.03","31"
"03/14/12 15:51:15","26.6325","99.4","214.83","479","60.0","31"
"03/14/12 15:56:15","26.6405","105.1","214.83","505","60.03","31"
"03/14/12 16:01:15","26.6486","102.3","215.2","490","60.07","31"
"03/14/12 16:06:13","26.6565","103.5","216.13","494","60.03","31"
"03/14/12 16:11:14","26.6641","96.9","215.01","468","60.03","31"
"03/14/12 16:16:15","26.6715","91.3","215.14","443","60.0","31"
"03/14/12 16:21:14","26.6781","84.0","214.87","413","60.0","32"
"03/14/12 16:26:15","26.6847","79.1","214.72","394","60.03","32"
"03/14/12 16:31:15","26.6909","73.6","214.48","370","60.03","32"
"03/14/12 16:36:15","26.6967","78.0","213.66","386","60.0","32"
"03/14/12 16:41:15","26.7026","75.0","215.07","375","60.03","32"
"03/14/12 16:46:15","26.7081","67.5","213.96","344","60.0","31"
"03/14/12 16:51:15","26.7132","49.1","214.38","308","60.03","30"
"03/14/12 16:56:13","26.7178","59.7","213.99","111","60.03","29"
"03/14/12 17:01:14","26.7216","55.0","214.54","187","60.07","28"
"03/14/12 17:06:14","26.7256","44.0","214.36","383","60.07","27"
"03/14/12 17:11:15","26.7293","39.0","213.23","163","60.03","26"
"03/14/12 17:16:13","26.7325","36.0","213.66","304","60.03","25"
"03/14/12 17:21:15","26.7352","30.1","213.39","87","60.03","25"
"03/14/12 17:26:15","26.7379","29.6","213.39","174","60.03","24"
"03/14/12 17:31:13","26.7401","32.2","213.11","33","60.03","24"
"03/14/12 17:36:14","26.7419","31.7","213.45","82","60.03","24"
"03/14/12 17:41:14","26.7433","10.9","213.36","5","60.03","23"
"03/14/12 17:46:14","26.7443","0.0","212.96","40","60.0","23"
"03/14/12 17:51:15","26.7449","14.0","212.68","0","60.03","22"
"03/14/12 17:56:15","26.7455","13.2","212.74","137","60.03","22"
"03/14/12 18:01:15","26.746","8.2","212.39","0","60.03","21"
"03/14/12 18:06:15","26.7465","0.0","213.14","0","60.07","20"
"03/14/12 18:11:14","26.747","0.0","212.6","0","60.03","20"
"03/14/12 18:16:15","26.7474","0.0","212.75","0","60.0","19"
"03/14/12 18:21:14","26.7478","3.9","212.93","0","60.0","19"
"03/15/12 07:31:14","26.7484","15.6","213.75","9","60.0","7"
"03/15/12 07:36:14","26.7494","12.0","214.22","8","60.03","8"
"03/15/12 07:41:15","26.7509","13.2","214.29","17","60.03","9"
"03/15/12 07:46:15","26.7526","25.4","214.79","56","60.0","9"
"03/15/12 07:51:14","26.7545","13.4","213.81","145","60.03","9"
"03/15/12 07:56:15","26.7566","29.5","212.8","187","60.0","9"
"03/15/12 08:01:14","26.759","30.0","213.88","107","60.0","9"
"03/15/12 08:06:14","26.7621","39.8","214.39","152","60.0","10"
"03/15/12 08:11:15","26.7657","49.2","214.59","132","60.03","10"
"03/15/12 08:16:16","26.7698","70.8","215.45","233","60.0","11"
"03/15/12 08:21:16","26.7742","73.2","215.03","374","60.0","11"
"03/15/12 08:26:14","26.7792","70.3","214.92","355","60.03","11"
"03/15/12 08:31:14","26.7846","47.4","214.94","299","60.03","12"
"03/15/12 08:36:15","26.7885","38.8","215.73","287","60.03","12"
"03/15/12 08:41:14","26.7921","38.5","214.29","312","60.0","12"
"03/15/12 08:46:14","26.7967","70.6","215.55","353","60.03","13"
"03/15/12 08:51:14","26.8027","77.9","215.41","385","60.0","13"
"03/15/12 09:01:15","26.8147","77.8","215.86","385","60.0","13"
"03/15/12 09:06:15","26.8211","86.2","215.27","422","60.03","13"
"03/15/12 09:11:14","26.8276","75.7","215.75","378","60.0","13"
"03/15/12 09:16:15","26.8328","66.2","215.43","335","60.0","14"
"03/15/12 09:21:15","26.8378","56.5","215.63","222","60.0","13"
"03/15/12 09:26:16","26.8427","76.5","216.4","383","60.03","13"
"03/15/12 09:31:14","26.8488","78.4","215.9","384","60.0","14"
"03/15/12 09:36:14","26.8552","82.3","216.34","400","60.0","14"
"03/15/12 09:41:15","26.8617","83.7","217.0","408","60.03","14"
"03/15/12 09:46:15","26.8689","94.5","216.94","456","60.0","15"
"03/15/12 09:51:14","26.8763","104.8","216.41","500","60.03","15"
"03/15/12 09:56:15","26.8847","111.3","216.69","530","60.0","15"
"03/15/12 10:01:14","26.8936","116.7","217.86","548","60.0","16"
"03/15/12 10:06:14","26.9019","94.4","216.93","456","60.03","17"
"03/15/12 10:11:15","26.9087","83.5","216.44","411","60.03","17"
"03/15/12 10:16:15","26.9147","72.3","215.95","362","60.03","17"
"03/15/12 10:21:15","26.9212","90.1","216.64","438","60.03","17"
"03/15/12 10:26:15","26.9286","90.1","216.01","435","60.03","17"
"03/15/12 10:31:14","26.9354","82.7","215.59","407","60.03","17"
"03/15/12 10:36:15","26.9414","74.5","214.56","371","60.07","17"
"03/15/12 10:41:16","26.9479","92.4","215.54","448","60.03","17"
"03/15/12 10:46:14","26.9549","98.5","215.57","474","60.0","17"
"03/15/12 10:51:14","26.9631","121.4","216.04","574","60.03","17"
"03/15/12 10:56:14","26.9733","133.5","215.62","623","60.03","17"
"03/15/12 11:01:15","26.9839","141.3","215.8","659","60.0","18"
"03/15/12 11:06:15","26.9958","151.6","216.05","701","60.0","19"
"03/15/12 11:11:14","27.0077","151.2","216.03","698","60.03","19"
"03/15/12 11:16:15","27.0204","172.8","217.19","789","60.0","20"
"03/15/12 11:21:15","27.0339","169.8","217.33","778","60.0","21"
"03/15/12 11:26:14","27.047","176.1","217.77","805","60.0","22"
"03/15/12 11:36:15","27.0735","155.5","216.03","721","60.03","22"
"03/15/12 11:41:16","27.0853","154.8","216.88","716","60.03","22"
"03/15/12 11:46:14","27.0969","153.8","215.89","714","60.0","21"
"03/15/12 11:51:15","27.109","147.3","216.06","686","60.0","22"
"03/15/12 11:56:14","27.1207","180.2","216.85","825","60.07","22"
"03/15/12 12:01:14","27.135","188.3","216.84","857","60.03","22"
"03/15/12 12:06:16","27.1495","182.8","216.78","835","60.03","23"
"03/15/12 12:11:15","27.1637","180.0","216.58","826","60.0","23"
"03/15/12 12:16:16","27.1777","180.9","215.95","828","60.0","24"
"03/15/12 12:21:14","27.1911","155.9","216.17","724","60.0","25"
"03/15/12 12:26:14","27.2037","174.6","216.59","801","60.03","26"
"03/15/12 12:31:15","27.2174","171.5","217.29","786","60.0","26"
"03/15/12 12:36:15","27.2314","180.2","216.69","828","60.0","27"
"03/15/12 12:46:14","27.26","181.1","216.34","830","59.96","29"
"03/15/12 12:51:15","27.2742","175.2","216.69","802","60.03","30"
"03/15/12 12:56:15","27.2881","179.2","217.17","821","60.03","30"
"03/15/12 13:01:16","27.3021","168.3","217.15","775","60.03","30"
"03/15/12 13:06:14","27.3156","178.1","216.72","816","60.0","31"
"03/15/12 13:11:15","27.3299","160.8","216.86","742","60.07","31"
"03/15/12 13:16:16","27.3432","166.1","217.44","763","60.03","32"
"03/15/12 13:21:15","27.3534","104.2","215.07","504","60.0","30"
"03/15/12 13:26:15","27.3623","135.6","214.98","637","60.03","29"
"03/15/12 13:31:15","27.3746","166.8","216.26","766","60.0","28"
"03/15/12 13:36:16","27.3866","195.0","216.92","888","60.0","28"
"03/15/12 13:41:16","27.4009","182.8","216.22","836","60.03","27"
"03/15/12 13:46:16","27.4137","170.7","216.21","788","60.03","27"
"03/15/12 13:51:14","27.4282","189.5","216.55","864","59.96","27"
"03/15/12 13:56:15","27.4421","186.8","216.95","847","60.03","27"
"03/15/12 14:01:15","27.4567","185.3","216.42","850","60.03","28"
"03/15/12 14:06:15","27.4701","143.3","215.71","666","60.03","28"